Location: *
(60.1759°S, 155.0663°W)
Time: 21:37:23
(UTC+00:00)

Cosmos 1500 Rocket - Pass Details

Date: 17 September 2019
Orbit: 604 x 630 km, 82.5° (Epoch: 16 October)

Event Time Altitude Azimuth Distance (km) Brightness Sun altitude
Exits shadow 13:14:48 45° 242° (WSW) 879 4.1 -22.7°
Drops below altitude 10° 13:19:05 10° 173° (S) 2,053 6.8 -22.3°
Sets 13:21:26 0° 167° (SSE) 2,964 7.9 -22.0°
